Beatrice, NE

7:42 PM CDT on August 17, 2017 (GMT -0500)
Beatrice Municipal

Weather History for KBIE - December, 2000

Change the Weather History Date:

Thursday, December 14, 2000

  Actual Average Record
Temperature  
Mean Temperature 8 °F -  
Max Temperature 19 °F 41 °F 62 °F (2006)
Min Temperature -2 °F 20 °F -8 °F (1963)
Degree Days  
Heating Degree Days 56    
Moisture  
Dew Point 6 °F    
Average Humidity 85    
Maximum Humidity 100    
Minimum Humidity 56    
Precipitation  
Precipitation 0.00 in - - ()
Sea Level Pressure  
Sea Level Pressure 30.25 in    
Wind  
Wind Speed 4 mph (South)    
Max Wind Speed 16 mph    
Max Gust Speed 22 mph    
Visibility 8 miles    
Events      
Averages and records for this station are not official NWS values.
T = Trace of Precipitation, MM = Missing Value Source: NWS Daily Summary

Daily Weather History Graph

Daily Weather History Graph

Search for Another Location

Airport or City:

Trip Planner

Search our weather history database for the weather conditions in past years. The results will help you decide how hot, cold, wet, or windy it might be!

Date:

Astronomy

Dec. 14, 2000 Rise Set
Actual Time 7:42 AM CST 5:01 PM CST
Civil Twilight 7:11 AM CST 5:32 PM CST
Nautical Twilight 6:37 AM CST 6:06 PM CST
Astronomical Twilight 6:04 AM CST 6:39 PM CST
Moon 8:57 PM CST (12/14) 10:50 AM CST (12/14)
Length of Visible Light 10h 20m
Length of Day
9h 19m
Waning Gibbous, 84% of the Moon is Illuminated
Dec 14
Waning Gibbous
Dec 17
Last Quarter
Dec 25
New
Jan 2
First Quarter
Jan 9
Full

Hourly Weather History & Observations

Time (CST) Temp. Windchill Dew Point Humidity Pressure Visibility Wind Dir Wind Speed Gust Speed Precip Events Conditions
12:10 AM 6.8 °F - 3.2 °F 85% 30.20 in 10.0 mi Calm Calm - N/A   Clear
1:11 AM 3.2 °F -4.2 °F -2.2 °F 78% 30.22 in 0.2 mi WNW 3.5 mph - N/A   Unknown
1:31 AM 1.4 °F -6.2 °F -11.2 °F 56% 30.22 in 2.5 mi WNW 3.5 mph - N/A   Clear
1:54 AM 1.4 °F - -5.8 °F 72% 30.22 in 0.2 mi Calm Calm - N/A   Unknown
2:10 AM 1.4 °F -8.3 °F -0.4 °F 92% 30.24 in 2.0 mi West 4.6 mph - N/A   Clear
2:51 AM 1.4 °F - -5.8 °F 72% 30.25 in 4.0 mi Calm Calm - N/A   Clear
3:10 AM -0.4 °F - -5.8 °F 78% 30.26 in 1.2 mi Calm Calm - N/A   Unknown
3:32 AM -0.4 °F - -5.8 °F 78% 30.26 in 0.8 mi Calm Calm - N/A   Unknown
3:49 AM -0.4 °F - -2.2 °F 92% 30.26 in 0.5 mi Calm Calm - N/A   Unknown
4:11 AM -0.4 °F - -2.2 °F 92% 30.25 in 0.8 mi Calm Calm - N/A   Unknown
4:29 AM -2.2 °F - -5.8 °F 85% 30.25 in 0.2 mi Calm Calm - N/A   Unknown
5:32 AM -2.2 °F - -7.6 °F 78% 30.25 in 10.0 mi Calm Calm - N/A   Clear
6:53 AM -2.2 °F - -5.8 °F 85% 30.27 in 10.0 mi Calm Calm - N/A   Clear
7:09 AM -2.2 °F - -2.2 °F 100% 30.28 in 10.0 mi Calm Calm - N/A   Scattered Clouds
7:51 AM -2.2 °F - -9.4 °F 71% 30.30 in 10.0 mi Calm Calm - N/A   Mostly Cloudy
8:50 AM -0.4 °F - -5.8 °F 78% 30.32 in 7.0 mi Calm Calm - N/A   Overcast
9:11 AM 3.2 °F -6.2 °F -2.2 °F 78% 30.32 in 3.5 mi South 4.6 mph - N/A   Overcast
9:30 AM 3.2 °F - -2.2 °F 78% 30.33 in 7.0 mi Calm Calm - N/A   Overcast
9:50 AM 3.2 °F - -0.4 °F 85% 30.33 in 7.0 mi Calm Calm - N/A   Overcast
10:10 AM 3.2 °F - 1.4 °F 92% 30.33 in 7.0 mi Calm Calm - N/A   Mostly Cloudy
10:30 AM 6.8 °F -2.0 °F 3.2 °F 85% 30.34 in 7.0 mi South 4.6 mph - N/A   Scattered Clouds
11:11 AM 10.4 °F - 6.8 °F 85% 30.33 in 10.0 mi Calm Calm - N/A   Scattered Clouds
11:30 AM 10.4 °F - 6.8 °F 85% 30.33 in 7.0 mi Calm Calm - N/A   Clear
11:54 AM 12.2 °F 0.7 °F 12.2 °F 100% 30.31 in 10.0 mi South 8.1 mph - N/A   Scattered Clouds
12:11 PM 14.0 °F 2.0 °F 12.2 °F 93% 30.31 in 10.0 mi South 9.2 mph - N/A   Scattered Clouds
12:31 PM 15.8 °F 4.2 °F 14.0 °F 93% 30.28 in 10.0 mi South 9.2 mph - N/A   Scattered Clouds
12:51 PM 15.8 °F 3.4 °F 12.2 °F 86% 30.28 in 10.0 mi SSE 10.4 mph - N/A   Clear
1:14 PM 17.6 °F 4.3 °F 12.2 °F 79% 30.28 in 10.0 mi South 12.7 mph - N/A   Clear
1:30 PM 15.8 °F 2.7 °F 12.2 °F 86% 30.27 in 10.0 mi South 11.5 mph - N/A   Clear
2:11 PM 17.6 °F 4.3 °F 12.2 °F 79% 30.25 in 10.0 mi South 12.7 mph - N/A   Clear
2:30 PM 19.4 °F 5.5 °F 12.2 °F 74% 30.26 in 10.0 mi South 15.0 mph - N/A   Clear
2:51 PM 19.4 °F 5.5 °F 12.2 °F 74% 30.25 in 10.0 mi South 15.0 mph - N/A   Clear
3:54 PM 17.6 °F 5.0 °F 12.2 °F 79% 30.25 in 10.0 mi South 11.5 mph - N/A   Clear
4:31 PM 17.6 °F 5.7 °F 14.0 °F 86% 30.24 in 10.0 mi SSE 10.4 mph - N/A   Clear
4:50 PM 17.6 °F 8.2 °F 12.2 °F 79% 30.24 in 10.0 mi SSE 6.9 mph - N/A   Clear
5:51 PM 17.6 °F 4.3 °F 14.0 °F 86% 30.21 in 10.0 mi SSE 12.7 mph - N/A   Clear
6:14 PM 17.6 °F 5.0 °F 10.4 °F 73% 30.20 in 10.0 mi SE 11.5 mph - N/A   Clear
6:50 PM 15.8 °F 0.9 °F 12.2 °F 86% 30.21 in 10.0 mi SSE 15.0 mph 20.7 mph N/A   Clear
7:10 PM 15.8 °F 0.3 °F 12.2 °F 86% 30.20 in 10.0 mi SSE 16.1 mph 21.9 mph N/A   Clear
7:30 PM 15.8 °F 1.4 °F 12.2 °F 86% 30.22 in 10.0 mi SSE 13.8 mph 19.6 mph N/A   Clear
7:51 PM 15.8 °F 2.1 °F 14.0 °F 93% 30.22 in 10.0 mi SSE 12.7 mph - N/A   Clear
8:10 PM 15.8 °F 0.9 °F 12.2 °F 86% 30.21 in 10.0 mi South 15.0 mph 20.7 mph N/A   Clear
9:30 PM 15.8 °F 5.1 °F 14.0 °F 93% 30.19 in 10.0 mi SSE 8.1 mph - N/A   Mostly Cloudy
9:53 PM 15.8 °F 5.1 °F 12.2 °F 86% 30.19 in 10.0 mi SSE 8.1 mph - N/A   Overcast
10:14 PM 15.8 °F 2.1 °F 15.8 °F 100% 30.22 in 10.0 mi South 12.7 mph - N/A   Overcast
10:50 PM 15.8 °F 1.4 °F 15.8 °F 100% 30.22 in 10.0 mi South 13.8 mph - N/A   Overcast
11:11 PM 15.8 °F 0.9 °F 14.0 °F 93% 30.21 in 10.0 mi South 15.0 mph - N/A   Overcast
11:33 PM 15.8 °F 1.4 °F 15.8 °F 100% 30.21 in 10.0 mi South 13.8 mph 21.9 mph N/A   Mostly Cloudy
11:54 PM 15.8 °F 2.1 °F 14.0 °F 93% 30.20 in 10.0 mi South 12.7 mph 20.7 mph N/A   Mostly Cloudy